K9JDN Weather Reports


time (UTC)temp
F
wind
direction
speed
knots
gust
knots
rain 1hr
in
rain 24hr
in
rain mn
in
humidity
%
barometer
mb
20260506014600 45 311 0.0 1.7 0.04 0.92 0.92 96 1013.6
20260506013100 45 0 0.0 0.0 0.05 0.92 0.92 96 1013.2
20260506011603 45 0 0.0 0.0 0.05 0.91 0.91 96 1013.2
20260506010104 45 0 0.0 0.0 0.03 0.88 0.88 96 1013.4
20260506004557 44 0 0.0 0.0 0.07 0.88 0.88 95 1012.8
20260506003058 44 0 0.0 0.9 0.07 0.87 0.87 95 1012.7
20260506001607 44 0 0.0 2.6 0.08 0.86 0.86 94 1012.7
20260506000122 45 0 0.9 3.5 0.07 0.85 0.85 94 1012.5
20260505234613 45 148 0.0 2.6 0.03 0.81 0.81 94 1012.3
20260505233056 46 338 0.9 1.7 0.02 0.80 0.80 94 1012.3
20260505231559 46 28 0.0 2.6 0.00 0.78 0.78 93 1012.1
20260505230058 46 0 0.0 0.9 0.00 0.78 0.78 93 1011.8
20260505224557 46 22 0.0 1.7 0.00 0.78 0.78 94 1011.7
20260505223104 47 0 0.0 0.9 0.00 0.78 0.78 94 1011.5
20260505221601 47 0 0.0 1.7 0.00 0.78 0.78 94 1011.4
20260505220107 47 0 0.0 2.6 0.02 0.78 0.78 95 1011.5
20260505214605 47 345 0.0 0.9 0.07 0.78 0.78 95 1011.7
20260505213055 47 0 0.0 0.9 0.11 0.78 0.78 95 1011.6
20260505211631 47 0 0.0 2.6 0.13 0.78 0.78 95 1011.9
20260505210059 47 0 0.0 2.6 0.14 0.76 0.76 95 1011.8
20260505204605 47 0 0.0 4.3 0.14 0.71 0.71 94 1012.4
20260505203057 47 0 0.0 4.3 0.11 0.67 0.67 94 1012.1
20260505201555 47 291 0.0 4.3 0.11 0.65 0.65 94 1012.2
20260505200058 47 267 0.0 1.7 0.10 0.62 0.62 94 1012.5
20260505194557 47 288 0.0 3.5 0.11 0.57 0.57 93 1012.8
20260505193057 47 5 0.9 3.5 0.14 0.56 0.56 92 1012.9
20260505191604 47 306 0.9 3.5 0.14 0.54 0.54 92 1012.8
20260505190113 48 20 0.0 2.6 0.14 0.52 0.52 90 1012.5
20260505184556 49 302 0.0 2.6 0.08 0.46 0.46 89 1012.8
20260505183100 50 0 0.0 2.6 0.04 0.42 0.42 86 1012.7
20260505181640 50 40 0.9 3.5 0.02 0.40 0.40 77 1013.0
20260505180106 51 0 0.0 1.7 0.00 0.38 0.38 74 1013.3
20260505174558 51 314 0.9 4.3 0.00 0.40 0.38 73 1013.4
20260505173100 52 0 0.0 2.6 0.00 0.40 0.38 81 1013.1
20260505171604 53 0 0.0 0.9 0.00 0.40 0.38 74 1013.0
20260505170100 53 0 0.0 1.7 0.00 0.40 0.38 73 1012.5
20260505164600 54 305 0.0 1.7 0.00 0.42 0.38 73 1012.2
20260505163058 55 0 0.0 3.5 0.00 0.42 0.38 67 1012.2
20260505161559 56 129 0.0 3.5 0.00 0.42 0.38 73 1011.8
20260505153103 55 141 0.0 2.6 0.00 0.42 0.38 76 1011.7
20260505151608 54 0 0.0 1.7 0.00 0.42 0.38 78 1011.8
20260505140108 50 0 0.0 1.7 0.03 0.42 0.38 85 1011.4
20260505130110 48 123 0.0 1.7 0.13 0.39 0.35 92 1011.7
20260505124617 48 53 0.0 3.5 0.13 0.38 0.34 92 1011.2
20260505123117 49 44 0.9 3.5 0.15 0.35 0.31 93 1011.2
20260505121557 50 271 0.9 3.5 0.08 0.28 0.24 93 1012.7
20260505120124 50 330 1.7 7.8 0.06 0.26 0.22 92 1011.6
20260505114557 51 302 0.0 2.6 0.05 0.25 0.21 83 1010.8
20260505113056 51 61 0.0 1.7 0.00 0.20 0.16 85 1009.8
20260505111556 52 28 0.0 1.7 0.00 0.20 0.16 86 1010.0
20260505110112 52 0 0.0 0.9 0.00 0.20 0.16 88 1009.7
20260505101603 54 46 0.0 1.7 0.10 0.20 0.16 90 1009.5
20260505100101 56 17 0.9 3.5 0.10 0.20 0.16 93 1009.3
20260505094559 57 0 0.0 6.1 0.10 0.20 0.16 95 1009.4
20260505093058 58 345 0.0 1.7 0.03 0.13 0.09 95 1008.9
20260505091600 58 0 0.0 0.0 0.00 0.10 0.06 95 1009.0
20260505090059 58 0 0.0 0.0 0.00 0.10 0.06 94 1008.3
20260505084605 58 0 0.0 0.0 0.00 0.10 0.06 94 1007.9
20260505083112 58 86 0.0 0.9 0.00 0.10 0.06 94 1007.8
20260505081606 58 0 0.0 0.9 0.00 0.10 0.06 93 1007.8
20260505080104 58 0 0.0 0.0 0.01 0.10 0.06 92 1007.4
20260505074558 59 0 0.0 0.9 0.05 0.10 0.06 91 1007.4
20260505073104 59 127 0.0 0.9 0.06 0.10 0.06 90 1007.6
20260505071609 59 0 0.0 0.9 0.06 0.10 0.06 88 1008.1
20260505070107 60 78 0.0 1.7 0.05 0.09 0.05 86 1008.1
20260505064702 62 25 1.7 11.3 0.01 0.05 0.01 73 1008.7
20260505063101 68 324 3.5 13.9 0.00 0.04 0.00 66 1008.9
20260505061601 70 297 0.9 5.2 0.00 0.04 0.00 65 1006.6
20260505060058 70 280 0.9 4.3 0.00 0.04 0.00 64 1006.2
20260505054558 71 223 0.9 7.0 0.00 0.04 0.00 64 1005.8
20260505053100 71 238 0.9 5.2 0.00 0.04 0.00 64 1005.6
20260505051558 71 203 0.9 7.8 0.00 0.04 0.00 64 1005.7
20260505050110 71 123 1.7 7.8 0.00 0.04 0.00 63 1005.3
20260505041607 71 91 0.0 6.1 0.00 0.12 0.04 63 1004.8
20260505040104 72 248 0.0 3.5 0.00 0.12 0.04 63 1005.1
20260505034612 72 79 0.9 4.3 0.00 0.12 0.04 63 1005.3
20260505033100 72 11 0.0 6.1 0.00 0.12 0.04 63 1005.5
20260505031605 72 139 0.9 7.0 0.00 0.12 0.04 63 1005.4
20260505030119 72 0 0.0 2.6 0.00 0.12 0.04 63 1005.4
20260505024612 73 0 0.0 4.3 0.00 0.12 0.04 62 1005.4
20260505023057 72 98 0.0 3.5 0.00 0.12 0.04 63 1005.0
20260505021601 72 0 0.0 0.9 0.00 0.12 0.04 63 1004.7
20260505020107 73 237 0.9 6.1 0.00 0.12 0.04 63 1004.4